SCP
0 0 0 0 0 0 -0 -0 0 0 0 0 0 0 0 -0 -0 -0 0 0 0 0 0 0 0 0 0 0 0 0 0 0 0 0 0 0 0 0 0 0 0 0 0 0
0 0 0 0 0 0 -0 0 0 0 0 0 0 0 0 0 0 0 0 0 0 0 0 0 0 0 0 0 0 0 0 0 0 0 0 0 0 0 0 0 0 0 0 0
0 0 0 0 0 0 0 0 0 0 0 -0 -0 0 0 0 0 0 0 0 0 0 0 0 0 0 0 0 0 0 0 0 0 0 0 0 0 0 0 0 0 0 0 0
0 0 0 0 0 0 0 0 0 0 0 -0 -0 0 0 0 0 0 0 0 0 0 0 0 0 0 0 0 0 0 0 0 0 0 0 0 0 0 0 0 0 0 0 0
0 0 0 0 0 0 0 0 0 0 0 -0 -0 -0 0 0 0 0 0 0 0 0 0 0 0 0 0 0 0 0 0 0 0 0 0 0 0 0 0 0 0 0 0 0
0 0 0 0 0 0 0 0 0 0 0 0 0 0 0 0 0 0 0 0 0 0 0 0 0 0 0 0 0 0 0 0 0 0 0 0 -0 0 0 0 0 0 0 0
0 0 0 0 0 0 0 0 0 0 0 0 0 0 0 0 0 0 0 0 0 0 0 0 0 0 0 0 0 0 0 0 0 0 0 0 0 0 0 0 0 0 0 0
0 0 0 0 0 0 0 0 0 0 0 0 0 0 0 0 0 0 0 0 0 0 0 0 0 0 0 0 0 0 0 0 0 0 0 0 0 0 0 0 0 0 0 0
0 0 0 0 0 0 0 0 0 0 0 0 0 0 0 0 0 0 0 0 0 0 0 0 0 0 0 0 0 0 0 0 0 0 0 0 0 0 0 0 0 0 0 0
0 0 0 0 0 0 0 0 0 0 0 0 0 0 0 0 0 0 0 0 0 0 0 0 0 0 0 0 0 0 0 0 0 0 0 0 0 0 0 0 0 0 0 0
0 0 0 0 0 0 0 0 0 -0 -0 -0 -0 0 0 0 0 0 0 0 0 0 0 0 0 0 0 0 0 0 0 0 0 0 0 0 0 0 0 0 0 0 0 0
0 0 0 0 0 0 0 0 0 -0 -0 -0 -0 0 0 0 0 0 0 0 0 0 0 0 0 0 0 0 0 0 0 0 0 0 0 0 0 0 0 0 0 0 0 0
0 0 0 0 0 0 0 0 0 0 -0 -0 -0 -0 0 0 0 0 0 0 0 0 0 0 0 0 0 0 0 0 0 0 0 0 0 0 0 0 0 0 0 0 0 0
0 0 0 0 0 0 0 0 0 0 0 0 0 0 0 0 0 0 0 0 0 0 0 0 0 0 0 0 0 0 0 0 0 0 0 0 0 0 0 0 0 0 0 0
0 0 0 0 0 0 0 0 0 0 0 0 0 0 0 0 0 0 0 0 0 0 0 0 0 0 0 0 0 0 0 0 0 0 0 0 0 0 0 0 0 0 0 0
0 0 0 0 0 0 0 0 0 0 0 0 0 0 0 0 0 0 0 0 0 0 0 0 0 0 0 0 0 0 0 0 0 0 0 0 0 0 0 0 0 0 0 0
0 0 0 0 0 0 0 0 0 0 0 0 0 0 0 0 0 0 0 0 0 0 0 0 0 0 0 0 0 0 0 0 0 0 0 0 0 0 0 0 0 0 0 0
0 0 0 0 0 0 0 0 0 0 0 0 0 0 0 0 0 0 0 0 0 0 0 0 0 0 0 0 0 0 0 0 0 0 0 0 0 0 0 0 0 0 0 0
0 0 0 0 0 0 0 0 0 0 0 0 0 0 0 0 0 0 0 0 0 0 0 0 0 0 0 0 0 0 0 0 0 0 0 0 0 0 0 0 0 0 0 0
0 0 0 0 0 0 0 0 0 0 0 0 0 0 0 0 0 0 0 0 0 0 0 0 0 0 0 0 0 0 0 0 0 0 0 0 0 0 0 0 0 0 0 0
0 0 0 0 0 0 0 0 0 0 0 0 0 0 0 0 0 0 0 0 0 0 0 0 0 0 0 0 0 0 0 0 0 0 0 0 0 0 0 0 0 0 0 0
0 0 0 0 0 0 0 0 0 0 0 0 0 0 0 0 0 0 0 0 0 0 0 0 0 0 0 0 0 0 0 0 0 0 0 0 0 0 0 0 0 0 0 0
0 0 0 0 0 0 0 0 0 0 0 0 0 0 0 0 0 0 0 0 0 0 0 0 0 0 0 0 0 0 0 0 0 0 0 0 0 0 0 0 0 0 0 0
0 0 0 0 0 0 0 0 0 0 0 0 0 0 0 0 0 0 0 0 0 0 0 0 0 0 0 0 0 0 0 0 0 0 0 0 0 0 0 0 0 0 0 0
0 0 0 0 0 0 0 0 0 0 0 0 0 0 0 0 0 0 0 0 0 0 0 0 0 0 0 0 0 0 0 0 0 0 0 0 0 0 0 0 0 0 0 0
0 0 0 0 0 0 0 0 0 0 0 0 0 0 0 0 0 0 0 0 0 0 0 0 0 0 0 0 0 0 0 0 0 0 0 0 0 0 0 0 0 0 0 0
0 0 0 0 0 0 0 0 0 0 0 0 0 0 0 0 0 0 0 0 0 0 0 0 0 0 0 0 0 0 0 0 0 0 0 0 0 0 0 0 0 0 0 0
Wind_Speed
6 5 3 6 7 6 8 8 9 10 10 12 9 8 8 6 6 7 8 7 7 6 6 6 6 5 5 6 6 6 6 6 6 5 5 5 5 5 5 5 6 6 6 7
4 3 4 8 9 8 9 8 10 11 14 7 6 5 5 6 6 7 7 8 8 7 7 7 7 6 6 6 6 6 6 7 6 5 5 5 5 5 5 5 6 5 6 7
4 4 4 8 8 8 6 6 7 9 9 6 7 7 7 7 7 7 7 8 8 8 7 7 7 6 6 6 6 6 6 7 6 5 6 6 5 5 5 6 6 6 6 6
2 3 6 7 1 4 5 7 7 7 7 6 7 8 7 6 5 6 7 8 8 8 8 8 7 6 5 6 6 6 6 7 6 6 6 6 5 6 6 6 6 6 6 7
1 3 9 6 2 2 3 6 4 6 7 6 5 5 4 3 3 5 6 7 7 7 7 7 7 7 6 6 6 6 7 7 7 6 6 7 6 6 6 5 6 5 6 6
2 3 7 6 2 1 2 6 3 3 4 4 5 4 5 5 6 7 7 6 7 7 7 7 7 6 6 7 7 8 8 8 8 7 6 7 7 6 6 5 5 5 6 6
4 5 9 5 1 2 2 6 3 2 3 3 3 5 6 7 7 6 7 7 7 6 6 7 7 6 6 7 8 9 9 9 8 7 6 6 6 5 5 5 5 5 6 6
4 4 9 2 3 4 5 3 3 3 3 4 5 6 7 7 7 7 7 7 7 6 7 7 6 5 7 8 9 8 8 8 8 7 6 5 5 5 4 4 4 5 4 5
8 8 3 3 4 4 2 3 4 4 4 4 5 6 7 6 6 7 7 7 7 6 8 7 6 5 7 9 9 8 8 8 8 8 7 5 4 4 4 4 3 4 3 4
5 7 5 5 4 4 3 4 5 5 5 4 5 7 7 7 6 6 7 6 6 6 7 8 7 7 7 8 8 8 8 8 8 7 7 6 4 3 3 3 3 3 3 3
5 6 5 4 4 4 4 4 4 5 4 4 5 6 6 6 6 6 7 6 5 6 7 8 8 8 8 7 7 7 8 7 7 6 6 5 5 4 4 4 5 4 3 3
6 5 4 5 4 3 3 5 5 5 5 5 4 6 6 6 5 5 6 6 6 6 7 8 8 8 8 7 7 7 7 7 6 5 5 5 5 5 6 6 7 7 7 6
4 3 4 5 4 3 3 5 5 4 5 6 5 5 5 5 5 5 6 6 6 7 7 7 8 8 8 7 7 6 6 7 6 5 5 5 5 4 5 6 7 8 8 8
3 2 3 3 4 4 4 5 4 4 4 4 5 4 4 5 5 6 6 6 6 6 7 7 7 8 8 7 7 7 6 7 7 5 5 5 5 4 4 4 4 5 6 8
3 3 4 4 4 4 3 3 4 4 4 4 4 4 4 5 6 7 6 6 7 6 6 7 7 8 8 7 7 7 6 5 5 5 4 4 4 4 3 3 3 4 4 5
4 3 3 3 4 4 4 3 4 5 5 5 5 5 5 5 6 6 6 5 5 7 7 7 7 8 7 6 7 5 5 8 7 5 4 4 4 4 4 4 3 3 4 4
2 4 4 4 5 5 4 4 4 5 5 5 6 6 5 5 6 6 6 5 5 6 6 6 7 8 7 6 5 5 5 5 8 5 4 4 4 4 4 3 4 4 4 5
4 4 4 4 4 4 5 4 4 5 5 5 5 5 5 5 6 7 7 6 6 6 5 6 7 7 6 6 5 4 4 4 4 4 4 4 4 3 3 3 4 4 4 5
3 3 3 3 3 3 4 5 5 4 5 4 4 5 5 5 5 6 5 5 6 6 6 6 10 7 6 6 6 3 4 4 4 4 3 5 4 4 3 3 4 4 4 4
3 3 3 3 3 3 4 4 4 4 4 4 4 4 5 5 5 5 5 5 4 5 6 7 6 5 5 6 6 3 3 3 3 3 3 3 3 4 3 3 4 4 4 4
4 4 4 3 4 4 4 4 4 4 4 4 4 5 5 6 5 4 4 5 5 5 6 8 5 4 5 5 5 3 3 3 3 3 3 3 3 3 3 3 3 4 4 4
3 3 4 4 4 4 4 4 3 4 4 4 4 4 5 5 5 4 4 4 5 9 6 3 3 6 7 6 3 2 3 3 3 2 3 3 3 3 3 3 3 3 3 3
3 3 3 3 4 4 5 4 4 4 4 4 5 4 4 4 3 3 5 4 4 8 5 3 6 8 8 4 2 2 3 3 3 3 3 3 3 3 3 3 3 3 3 3
3 3 3 3 3 3 4 5 4 4 4 4 4 4 3 4 3 2 3 7 9 9 4 6 9 9 7 3 2 2 2 3 3 3 3 3 3 3 3 3 3 3 3 4
3 3 3 3 3 3 4 5 4 4 4 4 4 4 3 2 3 4 4 5 8 8 4 6 8 8 4 3 3 2 2 2 3 3 2 3 3 3 3 3 3 4 4 4
2 2 2 3 3 3 3 3 3 4 4 4 4 4 3 3 3 3 3 4 5 6 5 4 4 5 3 3 3 3 3 3 4 3 3 3 3 3 3 4 4 4 4 4
2 2 2 3 3 3 3 3 3 4 4 4 5 4 4 4 4 4 4 4 4 4 4 3 3 3 3 3 3 3 3 3 3 3 3 3 3 3 4 4 4 4 4 4
Wind_Direction
263 272 258 247 249 224 216 222 231 256 261 274 294 293 295 302 311 318 321 319 319 318 319 322 320 312 306 308 309 306 301 297 287 281 272 267 265 264 268 268 267 263 255 252
280 269 262 268 258 239 238 241 249 269 273 277 289 288 297 303 306 309 315 318 318 320 320 319 318 311 308 308 307 306 303 301 297 291 281 270 265 263 267 269 266 265 260 252
276 313 326 274 242 214 221 222 214 243 262 316 311 304 298 298 302 303 309 314 316 316 313 311 311 308 306 306 309 307 302 300 298 292 286 276 271 268 264 265 262 261 262 258
291 359 256 250 217 200 225 252 233 254 279 291 287 295 290 284 289 301 310 313 315 316 317 316 316 312 306 310 308 305 302 301 300 289 288 282 270 266 263 263 258 257 262 259
195 268 278 292 262 186 211 275 246 253 281 301 315 318 302 305 318 302 305 306 306 308 311 316 320 319 319 319 316 310 304 301 299 290 287 283 272 266 266 264 264 263 264 259
165 229 257 265 271 218 120 287 287 255 283 306 343 335 300 322 326 317 315 314 314 316 320 321 322 325 325 320 317 309 307 305 303 295 283 279 272 268 269 267 267 272 272 264
199 237 264 262 257 114 179 269 310 275 278 280 270 256 286 308 310 309 311 313 317 321 319 316 322 327 323 318 310 306 308 306 306 301 287 277 271 267 268 272 273 271 274 276
175 218 257 221 142 186 231 283 295 286 280 273 278 287 298 304 307 313 316 317 321 320 315 317 324 326 320 315 311 314 314 312 311 309 300 287 276 275 272 268 269 270 275 283
197 219 252 194 215 238 245 268 273 269 278 280 289 296 304 305 306 310 311 315 319 316 315 321 325 322 313 314 320 320 318 315 315 313 310 303 284 279 280 272 266 273 272 276
252 264 264 263 264 271 254 256 270 269 276 276 279 291 300 301 305 310 310 312 316 319 319 320 323 321 312 316 323 321 317 317 317 316 317 319 310 294 284 279 273 270 271 277
258 279 302 282 256 264 277 279 286 289 277 269 274 287 290 297 300 301 305 311 313 312 311 312 318 320 320 323 325 322 319 318 318 317 318 320 319 315 304 293 285 284 276 275
237 240 227 266 284 287 280 286 290 296 299 293 277 281 291 295 298 301 305 310 314 314 312 313 318 319 322 325 325 323 322 323 321 321 321 320 317 321 325 318 323 322 322 316
246 271 250 271 289 286 280 285 291 285 281 290 293 287 291 295 302 307 308 311 310 308 308 313 318 320 326 328 326 322 317 318 317 320 321 320 319 319 326 339 344 344 342 339
266 283 284 276 276 289 288 293 295 294 291 284 290 298 298 300 306 311 309 306 306 308 311 316 319 320 325 328 326 323 319 316 319 317 319 319 319 318 319 326 334 343 349 348
271 246 251 278 294 304 306 310 315 314 315 315 312 309 309 307 306 306 307 311 315 315 316 320 320 320 327 329 327 324 323 322 321 322 322 320 320 323 326 329 335 338 345 351
297 291 277 282 291 303 313 313 309 309 314 314 315 311 306 300 299 303 308 314 316 313 315 317 315 316 323 326 326 325 323 326 332 330 331 334 336 337 340 342 345 348 349 348
294 292 290 292 294 299 297 291 289 294 301 303 302 305 308 311 312 313 315 316 307 301 305 310 311 317 323 325 325 322 322 324 333 336 337 338 341 343 343 345 347 346 346 345
252 260 265 264 272 285 296 299 295 295 294 296 303 307 308 308 306 308 312 319 320 317 314 313 314 320 322 324 325 322 324 326 331 335 336 341 346 347 348 346 344 343 342 343
294 290 291 286 279 278 287 292 294 294 295 299 301 299 296 295 297 302 310 318 321 319 317 319 325 330 324 324 333 325 327 329 333 338 341 342 350 354 355 352 348 347 344 346
315 315 313 311 310 297 294 296 297 299 298 296 297 299 303 303 304 307 309 300 288 287 300 313 321 321 320 321 333 330 331 333 336 339 344 349 348 348 349 348 348 347 346 347
315 317 316 315 313 309 302 300 299 300 305 303 296 295 298 302 306 307 308 306 305 307 311 318 324 319 319 330 340 341 340 339 341 342 341 339 339 340 342 343 342 342 342 342
307 308 307 310 311 311 312 309 304 305 309 308 304 301 304 308 312 307 284 278 299 316 323 318 318 322 333 343 345 344 343 342 338 336 334 333 333 333 335 336 335 333 334 335
299 300 304 307 305 305 312 313 311 310 309 309 307 307 304 300 301 304 306 305 309 318 324 318 323 328 338 349 344 342 340 338 334 331 327 325 324 323 321 322 322 324 324 325
306 311 312 313 315 317 318 318 318 314 309 308 308 307 306 311 309 289 284 310 323 325 328 326 331 335 341 350 340 338 335 330 327 324 323 322 321 320 318 318 319 319 319 320
316 314 317 323 322 311 307 316 322 321 322 320 319 317 311 299 296 308 314 315 322 329 329 329 335 339 347 341 337 331 325 317 315 319 319 319 319 318 316 316 316 316 316 316
313 309 304 300 299 303 311 318 319 321 325 325 324 324 324 320 311 313 318 318 321 330 332 328 330 334 337 334 329 324 319 316 320 320 315 312 311 310 308 311 311 307 306 306
322 322 322 323 321 319 316 316 314 316 318 314 314 322 327 328 328 328 326 326 328 328 326 326 328 328 327 327 324 322 319 316 313 312 310 307 305 301 301 302 301 302 303 304